Tokyo, Japan

1:42 PM JST on April 23, 2018 (GMT +0900)
Tokyo (Haneda) International

Weather History for RJTT - October, 2013

Change the Weather History Date:

Wednesday, October 30, 2013

  Actual Average Record
Temperature  
Mean Temperature 64 °F -  
Max Temperature 69 °F 59 °F 75 °F (1996)
Min Temperature 59 °F 49 °F 48 °F (2002)
Degree Days  
Heating Degree Days 1    
Growing Degree Days 14 (Base 50)    
Moisture  
Dew Point 55 °F    
Average Humidity 73    
Maximum Humidity 88    
Minimum Humidity 52    
Precipitation  
Precipitation 0.00 in - - ()
Sea Level Pressure  
Sea Level Pressure 30.04 in    
Wind  
Wind Speed 7 mph ()    
Max Wind Speed 16 mph    
Max Gust Speed -    
Visibility 6.2 miles    
Events      
Averages and records for this station are not official NWS values.
T = Trace of Precipitation, MM = Missing Value Source: Averaged Metar Reports

Daily Weather History Graph

Daily Weather History Graph

Search for Another Location

Airport or City:

Astronomy

Oct. 30, 2013 Rise Set
Actual Time 6:00 AM JST 4:48 PM JST
Civil Twilight 5:34 AM JST 5:14 PM JST
Nautical Twilight 5:04 AM JST 5:44 PM JST
Astronomical Twilight 4:34 AM JST 6:14 PM JST
Moon 1:21 AM JST (10/30) 2:05 PM JST (10/30)
Length of Visible Light 11h 40m
Length of Day
10h 47m
Waning Crescent, 21% of the Moon is Illuminated
Oct 30
Waning Crescent
Nov 3
New
Nov 10
First Quarter
Nov 18
Full
Nov 26
Last Quarter

Hourly Weather History & Observations

Time (JST) Temp. Dew Point Humidity Pressure Visibility Wind Dir Wind Speed Gust Speed Precip Events Conditions
12:00 AM 60.8 °F 55.4 °F 82% 30.12 in 6.2 mi Variable 2.3 mph - N/A   Mostly Cloudy
12:30 AM 59.0 °F 55.4 °F 88% 30.12 in 6.2 mi NW 9.2 mph - N/A   Mostly Cloudy
1:00 AM 59.0 °F 55.4 °F 88% 30.12 in 6.2 mi NW 6.9 mph - N/A   Mostly Cloudy
1:30 AM 59.0 °F 55.4 °F 88% 30.12 in 6.2 mi NNW 5.8 mph - N/A   Mostly Cloudy
2:00 AM 60.8 °F 55.4 °F 82% 30.09 in 6.2 mi North 9.2 mph - N/A   Mostly Cloudy
2:30 AM 60.8 °F 55.4 °F 82% 30.09 in 6.2 mi North 9.2 mph - N/A   Mostly Cloudy
3:00 AM 60.8 °F 55.4 °F 82% 30.09 in 6.2 mi North 5.8 mph - N/A   Mostly Cloudy
3:30 AM 60.8 °F 55.4 °F 82% 30.09 in 6.2 mi North 5.8 mph - N/A   Mostly Cloudy
4:00 AM 60.8 °F 55.4 °F 82% 30.09 in 6.2 mi NNW 6.9 mph - N/A   Mostly Cloudy
4:30 AM 60.8 °F 55.4 °F 82% 30.09 in 6.2 mi North 6.9 mph - N/A   Mostly Cloudy
5:00 AM 60.8 °F 55.4 °F 82% 30.06 in 6.2 mi North 6.9 mph - N/A   Mostly Cloudy
5:30 AM 60.8 °F 55.4 °F 82% 30.06 in 6.2 mi North 9.2 mph - N/A   Mostly Cloudy
6:00 AM 60.8 °F 55.4 °F 82% 30.06 in 5.0 mi North 9.2 mph - N/A   Mostly Cloudy
6:30 AM 60.8 °F 55.4 °F 82% 30.06 in 6.2 mi North 8.1 mph - N/A   Mostly Cloudy
7:00 AM 60.8 °F 55.4 °F 82% 30.06 in 6.2 mi North 10.4 mph - N/A   Mostly Cloudy
7:30 AM 60.8 °F 55.4 °F 82% 30.06 in 6.2 mi North 6.9 mph - N/A   Partly Cloudy
8:00 AM 62.6 °F 53.6 °F 72% 30.06 in 6.2 mi North 8.1 mph - N/A   Partly Cloudy
8:30 AM 62.6 °F 55.4 °F 77% 30.06 in 6.2 mi NNE 4.6 mph - N/A   Partly Cloudy
9:00 AM 64.4 °F 55.4 °F 73% 30.06 in 6.2 mi North 5.8 mph - N/A   Partly Cloudy
9:30 AM 64.4 °F 53.6 °F 68% 30.06 in 6.2 mi NE 3.5 mph - N/A   Partly Cloudy
10:00 AM 66.2 °F 55.4 °F 68% 30.04 in 6.2 mi NE 4.6 mph - N/A   Partly Cloudy
10:30 AM 66.2 °F 57.2 °F 73% 30.04 in 6.2 mi ESE 5.8 mph - N/A   Partly Cloudy
11:00 AM 64.4 °F 55.4 °F 73% 30.04 in 6.2 mi East 3.5 mph - N/A   Partly Cloudy
11:30 AM 66.2 °F 57.2 °F 73% 30.01 in 6.2 mi ESE 4.6 mph - N/A   Partly Cloudy
12:00 PM 68.0 °F 57.2 °F 68% 30.01 in 6.2 mi ESE 5.8 mph - N/A   Partly Cloudy
12:30 PM 68.0 °F 57.2 °F 68% 29.98 in 6.2 mi East 6.9 mph - N/A   Partly Cloudy
1:00 PM 68.0 °F 57.2 °F 68% 29.98 in 6.2 mi ESE 6.9 mph - N/A   Partly Cloudy
1:30 PM 66.2 °F 57.2 °F 73% 29.98 in 6.2 mi ESE 6.9 mph - N/A   Partly Cloudy
2:00 PM 68.0 °F 57.2 °F 68% 29.98 in 6.2 mi ESE 5.8 mph - N/A   Partly Cloudy
2:30 PM 68.0 °F 57.2 °F 68% 29.95 in 6.2 mi ESE 5.8 mph - N/A   Partly Cloudy
3:00 PM 69.8 °F 55.4 °F 60% 29.98 in 6.2 mi SSE 6.9 mph - N/A   Partly Cloudy
3:30 PM 68.0 °F 55.4 °F 64% 29.98 in 6.2 mi South 6.9 mph - N/A   Mostly Cloudy
4:00 PM 68.0 °F 55.4 °F 64% 29.98 in 6.2 mi South 11.5 mph - N/A   Scattered Clouds
4:30 PM 68.0 °F 57.2 °F 68% 29.98 in 6.2 mi South 12.7 mph - N/A   Partly Cloudy
5:00 PM 68.0 °F 57.2 °F 68% 29.98 in 6.2 mi South 11.5 mph - N/A   Partly Cloudy
5:30 PM 66.2 °F 57.2 °F 73% 29.98 in 6.2 mi South 9.2 mph - N/A   Partly Cloudy
6:00 PM 66.2 °F 57.2 °F 73% 29.98 in 6.2 mi South 6.9 mph - N/A   Partly Cloudy
6:30 PM 64.4 °F 57.2 °F 77% 30.01 in 6.2 mi NW 5.8 mph - N/A   Partly Cloudy
7:00 PM 66.2 °F 57.2 °F 73% 30.04 in 6.2 mi NW 9.2 mph - N/A   Mostly Cloudy
7:30 PM 64.4 °F 57.2 °F 77% 30.04 in 6.2 mi NNW 16.1 mph - N/A   Mostly Cloudy
8:00 PM 66.2 °F 55.4 °F 68% 30.04 in 6.2 mi North 15.0 mph - N/A   Mostly Cloudy
8:30 PM 66.2 °F 53.6 °F 64% 30.04 in 6.2 mi North 12.7 mph - N/A   Scattered Clouds
9:00 PM 66.2 °F 48.2 °F 52% 30.06 in 6.2 mi North 16.1 mph - N/A   Mostly Cloudy
9:30 PM 64.4 °F 53.6 °F 68% 30.06 in 6.2 mi NE 9.2 mph - N/A   Scattered Clouds
10:00 PM 64.4 °F 51.8 °F 64% 30.06 in 6.2 mi NE 10.4 mph - N/A   Partly Cloudy
10:30 PM 62.6 °F 51.8 °F 68% 30.09 in 6.2 mi NNE 11.5 mph - N/A   Partly Cloudy
11:00 PM 64.4 °F 51.8 °F 64% 30.06 in 6.2 mi North 10.4 mph - N/A   Partly Cloudy
11:30 PM 64.4 °F 48.2 °F 56% 30.09 in 6.2 mi North 12.7 mph - N/A   Partly Cloudy